CMP715 MPTO-KAUS

Flight info

Callsign CMP715
Flight time N/A
Altitude 34000
Route SIMAN3B SIMAN DCT MORLI UN420 SPP UM205 SIGMA UA766 ITLOM/N0460F360 UA766 KEHLI A766 SBI DCT DBOYS WLEEE7
Aircraft B738/M-SDE2E3FGHIRWXY/LB1

Departure

Time 2026-04-30 21:37
Airport Tocumen International Airport (MPTO)

Arrival

Time N/A
Airport Austin Bergstrom International Airport (KAUS)
Time Latitude Longitude Altitude Speed Heading
2026-04-30 21:00 9.06639 -79.38600 29 ft 0 kts 299°
2026-04-30 21:27 9.06634 -79.38590 29 ft 4 kts 300°
2026-04-30 21:27 9.06619 -79.38567 29 ft 4 kts 304°
2026-04-30 21:28 9.06584 -79.38525 29 ft 4 kts 323°
2026-04-30 21:28 9.06562 -79.38514 29 ft 4 kts
2026-04-30 21:28 9.06554 -79.38515 29 ft 0 kts 28°
2026-04-30 21:31 9.06571 -79.38506 29 ft 5 kts 28°
2026-04-30 21:31 9.06679 -79.38449 29 ft 10 kts 28°
2026-04-30 21:32 9.06800 -79.38387 29 ft 9 kts 25°
2026-04-30 21:32 9.06862 -79.38377 29 ft 9 kts 343°
2026-04-30 21:32 9.06901 -79.38425 29 ft 9 kts 298°
2026-04-30 21:32 9.06943 -79.38466 29 ft 9 kts 352°
2026-04-30 21:33 9.06997 -79.38443 29 ft 9 kts 28°
2026-04-30 21:33 9.07113 -79.38388 29 ft 10 kts
2026-04-30 21:33 9.07163 -79.38429 30 ft 10 kts 302°
2026-04-30 21:34 9.07198 -79.38488 30 ft 10 kts 301°
2026-04-30 21:34 9.07257 -79.38609 35 ft 9 kts 284°
2026-04-30 21:34 9.07272 -79.38671 43 ft 9 kts 286°
2026-04-30 21:35 9.07312 -79.38711 46 ft 9 kts
2026-04-30 21:35 9.07331 -79.38702 44 ft 0 kts 31°
2026-04-30 21:35 9.07335 -79.38699 45 ft 9 kts 31°
2026-04-30 21:35 9.07597 -79.38541 48 ft 78 kts 31°
2026-04-30 21:36 9.08254 -79.38147 44 ft 139 kts 31°
2026-04-30 21:36 9.09223 -79.37564 207 ft 175 kts 31°
2026-04-30 21:37 9.12359 -79.35708 2331 ft 179 kts 30°
2026-04-30 21:37 9.13444 -79.35062 2970 ft 183 kts 30°
2026-04-30 21:37 9.14561 -79.34396 3553 ft 193 kts 30°
2026-04-30 21:37 9.15768 -79.33664 3840 ft 213 kts 31°
2026-04-30 21:38 9.17095 -79.32863 4027 ft 235 kts 31°
2026-04-30 21:38 9.18569 -79.31970 4283 ft 259 kts 31°
2026-04-30 21:38 9.20145 -79.31011 4862 ft 267 kts 31°
2026-04-30 21:38 9.21863 -79.30269 5520 ft 274 kts
2026-04-30 21:39 9.23728 -79.30502 6384 ft 272 kts 339°
2026-04-30 21:39 9.25335 -79.31562 6957 ft 283 kts 314°
2026-04-30 21:39 9.26358 -79.33279 7591 ft 289 kts 289°
2026-04-30 21:39 9.26720 -79.35286 8276 ft 293 kts 274°
2026-04-30 21:40 9.26788 -79.37370 8871 ft 299 kts 271°
2026-04-30 21:40 9.26796 -79.39451 9612 ft 300 kts 270°
2026-04-30 21:40 9.26809 -79.41572 10249 ft 303 kts 270°
2026-04-30 21:40 9.26837 -79.43768 10478 ft 322 kts 270°
2026-04-30 21:41 9.26884 -79.46108 10639 ft 342 kts 271°
2026-04-30 21:41 9.26947 -79.48586 10792 ft 360 kts 271°
2026-04-30 21:41 9.27017 -79.51156 11191 ft 369 kts 271°
2026-04-30 21:41 9.27092 -79.53772 11679 ft 374 kts 271°
2026-04-30 21:42 9.27394 -79.56395 12244 ft 378 kts 283°
2026-04-30 21:42 9.28122 -79.58954 12886 ft 380 kts 286°
2026-04-30 21:42 9.28916 -79.61513 13488 ft 382 kts 286°
2026-04-30 21:42 9.29714 -79.64093 13997 ft 385 kts 286°
2026-04-30 21:43 9.30498 -79.66689 14483 ft 387 kts 285°
2026-04-30 21:43 9.31261 -79.69278 14972 ft 390 kts 285°
2026-04-30 21:43 9.32028 -79.71916 15481 ft 391 kts 285°
2026-04-30 21:43 9.32793 -79.74569 15979 ft 393 kts 285°
2026-04-30 21:44 9.33558 -79.77233 16440 ft 395 kts 285°
2026-04-30 21:44 9.34332 -79.79925 16905 ft 398 kts 285°
2026-04-30 21:44 9.35109 -79.82626 17371 ft 401 kts 285°
2026-04-30 21:44 9.36111 -79.85269 17798 ft 405 kts 301°
2026-04-30 21:45 9.37434 -79.86983 18136 ft 408 kts 315°
2026-04-30 21:45 9.37776 -79.87315 18202 ft 409 kts 318°
2026-04-30 21:45 9.40140 -79.88917 18607 ft 411 kts 330°
2026-04-30 21:45 9.42640 -79.90323 19010 ft 412 kts 330°
2026-04-30 21:46 9.45170 -79.91716 19392 ft 415 kts 330°
2026-04-30 21:46 9.47712 -79.93114 19763 ft 417 kts 330°
2026-04-30 21:46 9.50266 -79.94528 20136 ft 419 kts 330°
2026-04-30 21:46 9.52790 -79.95936 20507 ft 420 kts 330°
2026-04-30 21:47 9.55355 -79.97376 20888 ft 422 kts 330°
2026-04-30 21:47 9.57933 -79.98830 21248 ft 424 kts 329°
2026-04-30 21:47 9.60515 -80.00290 21601 ft 426 kts 329°
2026-04-30 21:47 9.63112 -80.01760 21951 ft 428 kts 329°
2026-04-30 21:48 9.65718 -80.03237 22299 ft 430 kts 329°
2026-04-30 21:48 9.68336 -80.04721 22633 ft 432 kts 329°
2026-04-30 21:48 9.70963 -80.06209 22982 ft 434 kts 329°
2026-04-30 21:48 9.73601 -80.07704 23319 ft 435 kts 329°
2026-04-30 21:49 9.76247 -80.09204 23595 ft 437 kts 329°
2026-04-30 21:49 9.78907 -80.10712 23858 ft 439 kts 329°
2026-04-30 21:49 9.81579 -80.12227 24119 ft 440 kts 329°
2026-04-30 21:49 9.84259 -80.13747 24387 ft 442 kts 329°
2026-04-30 21:50 9.86952 -80.15275 24635 ft 444 kts 329°
2026-04-30 21:50 9.89621 -80.16788 24884 ft 446 kts 328°
2026-04-30 21:50 9.92331 -80.18326 25138 ft 447 kts 328°
2026-04-30 21:50 9.95050 -80.19869 25393 ft 449 kts 328°
2026-04-30 21:51 9.97815 -80.21439 25645 ft 451 kts 328°
2026-04-30 21:51 10.00520 -80.22975 25891 ft 452 kts 328°
2026-04-30 21:51 10.03275 -80.24539 26116 ft 454 kts 328°
2026-04-30 21:51 10.06035 -80.26107 26350 ft 456 kts 328°
2026-04-30 21:52 10.08809 -80.27682 26590 ft 458 kts 328°
2026-04-30 21:52 10.11593 -80.29264 26815 ft 459 kts 328°
2026-04-30 21:52 10.14384 -80.30850 27038 ft 460 kts 328°
2026-04-30 21:52 10.17183 -80.32441 27266 ft 462 kts 328°
2026-04-30 21:53 10.19992 -80.34038 27485 ft 463 kts 328°
2026-04-30 21:53 10.22816 -80.35644 27696 ft 465 kts 327°
2026-04-30 21:53 10.25645 -80.37253 27902 ft 466 kts 327°
2026-04-30 21:53 10.28482 -80.38867 28111 ft 468 kts 327°
2026-04-30 21:54 10.31328 -80.40487 28307 ft 469 kts 327°
2026-04-30 21:54 10.34144 -80.42089 28502 ft 471 kts 327°
2026-04-30 21:54 10.37006 -80.43718 28703 ft 472 kts 327°
2026-04-30 21:54 10.39878 -80.45353 28897 ft 474 kts 327°
2026-04-30 21:55 10.42761 -80.46995 29150 ft 474 kts 327°
2026-04-30 21:55 10.45632 -80.48630 29494 ft 472 kts 327°
2026-04-30 21:55 10.48492 -80.50258 29871 ft 469 kts 327°
2026-04-30 21:55 10.51332 -80.51876 30132 ft 468 kts 327°
2026-04-30 21:56 10.54176 -80.53497 30344 ft 468 kts 327°
2026-04-30 21:56 10.57019 -80.55119 30550 ft 469 kts 326°
2026-04-30 21:56 10.59866 -80.56743 30784 ft 468 kts 326°
2026-04-30 21:56 10.62672 -80.58344 31047 ft 467 kts 326°
2026-04-30 21:57 10.65501 -80.59957 31326 ft 466 kts 326°
2026-04-30 21:57 10.68333 -80.61573 31583 ft 465 kts 326°
2026-04-30 21:57 10.71158 -80.63183 31823 ft 465 kts 326°
2026-04-30 21:57 10.73981 -80.64790 32079 ft 464 kts 326°
2026-04-30 21:58 10.76803 -80.66396 32335 ft 463 kts 326°
2026-04-30 21:58 10.79617 -80.67997 32605 ft 462 kts 326°
2026-04-30 21:58 10.82424 -80.69596 32859 ft 462 kts 326°
2026-04-30 21:58 10.85226 -80.71192 33101 ft 461 kts 326°
2026-04-30 21:59 10.87992 -80.72769 33351 ft 461 kts 326°
2026-04-30 21:59 10.90791 -80.74365 33622 ft 460 kts 326°
2026-04-30 21:59 10.93577 -80.75954 33830 ft 459 kts 326°
2026-04-30 22:00 10.99183 -80.79154 33819 ft 462 kts 326°
2026-04-30 22:00 11.07567 -80.83938 33814 ft 458 kts 326°
2026-04-30 22:01 11.13120 -80.87109 33823 ft 456 kts 326°
2026-04-30 22:01 11.18644 -80.90265 33818 ft 455 kts 326°
2026-04-30 22:02 11.24124 -80.93399 33832 ft 455 kts 326°
2026-04-30 22:02 11.29681 -80.96578 33839 ft 456 kts 326°
2026-04-30 22:03 11.35185 -80.99728 33826 ft 457 kts 326°
2026-04-30 22:03 11.40753 -81.02915 33838 ft 459 kts 326°
2026-04-30 22:04 11.46340 -81.06115 33833 ft 461 kts 326°
2026-04-30 22:05 11.54750 -81.10934 33832 ft 463 kts 326°
2026-04-30 22:05 11.60371 -81.14156 33830 ft 464 kts 326°
2026-04-30 22:06 11.65995 -81.17382 33826 ft 463 kts 326°
2026-04-30 22:06 11.74386 -81.22197 33832 ft 462 kts 326°
2026-04-30 22:07 11.79980 -81.25410 33827 ft 460 kts 326°
2026-04-30 22:07 11.85556 -81.28613 33819 ft 459 kts 326°
2026-04-30 22:08 11.91120 -81.31812 33830 ft 458 kts 326°
2026-04-30 22:08 11.96667 -81.35002 33839 ft 457 kts 326°
2026-04-30 22:09 12.02210 -81.38192 33832 ft 457 kts 326°
2026-04-30 22:09 12.07749 -81.41381 33840 ft 456 kts 326°
2026-04-30 22:10 12.13241 -81.44543 33830 ft 455 kts 326°
2026-04-30 22:10 12.17871 -81.47211 33829 ft 455 kts 326°
2026-04-30 22:11 12.26114 -81.51964 33839 ft 456 kts 326°
2026-04-30 22:12 12.31647 -81.55156 33837 ft 456 kts 326°
2026-04-30 22:12 12.37181 -81.58350 33842 ft 457 kts 326°
2026-04-30 22:13 12.42725 -81.61552 33838 ft 457 kts 326°
2026-04-30 22:13 12.48275 -81.64759 33829 ft 458 kts 326°
2026-04-30 22:14 12.53824 -81.67967 33823 ft 459 kts 326°
2026-04-30 22:14 12.59379 -81.71189 33834 ft 459 kts 325°
2026-04-30 22:15 12.64814 -81.74597 33836 ft 458 kts 323°
2026-04-30 22:15 12.70215 -81.78093 33860 ft 459 kts 323°
2026-04-30 22:16 12.75638 -81.81581 33855 ft 461 kts 323°
2026-04-30 22:17 12.86533 -81.88532 33846 ft 464 kts 323°
2026-04-30 22:17 12.94759 -81.93776 33846 ft 465 kts 323°
2026-04-30 22:18 13.02997 -81.99033 33854 ft 465 kts 323°
2026-04-30 22:19 13.11232 -82.04293 33851 ft 464 kts 323°
2026-04-30 22:20 13.19449 -82.09546 33851 ft 463 kts 323°
2026-04-30 22:20 13.27652 -82.14794 33858 ft 462 kts 323°
2026-04-30 22:21 13.33074 -82.18265 33857 ft 462 kts 323°
2026-04-30 22:21 13.38524 -82.21757 33870 ft 461 kts 323°
2026-04-30 22:22 13.43969 -82.25246 33857 ft 461 kts 323°
2026-04-30 22:22 13.49409 -82.28735 33856 ft 460 kts 323°
2026-04-30 22:23 13.54834 -82.32216 33859 ft 459 kts 323°
2026-04-30 22:23 13.60239 -82.35686 33859 ft 458 kts 323°
2026-04-30 22:24 13.65644 -82.39158 33859 ft 457 kts 323°
2026-04-30 22:24 13.71045 -82.42629 33857 ft 457 kts 323°
2026-04-30 22:25 13.76409 -82.46079 33873 ft 457 kts 322°
2026-04-30 22:25 13.81798 -82.49547 33865 ft 457 kts 322°
2026-04-30 22:26 13.89900 -82.54764 33864 ft 458 kts 322°
2026-04-30 22:27 13.95306 -82.58253 33862 ft 458 kts 322°
2026-04-30 22:27 14.03397 -82.63486 33869 ft 459 kts 322°
2026-04-30 22:28 14.11527 -82.68749 33881 ft 460 kts 322°
2026-04-30 22:29 14.22371 -82.75775 33868 ft 460 kts 322°
2026-04-30 22:31 14.41311 -82.88065 33874 ft 460 kts 323°
2026-04-30 22:32 14.54856 -82.96870 33871 ft 460 kts 323°
2026-04-30 22:33 14.68343 -83.05650 33871 ft 459 kts 323°
2026-04-30 22:35 14.81862 -83.14465 33880 ft 459 kts 323°
2026-04-30 22:36 14.95358 -83.23277 33866 ft 458 kts 325°
2026-04-30 22:37 15.06096 -83.30297 33870 ft 455 kts 325°
2026-04-30 22:38 15.16751 -83.37273 33871 ft 454 kts 325°
2026-04-30 22:39 15.24737 -83.42507 33872 ft 452 kts 325°
2026-04-30 22:40 15.40631 -83.52936 33871 ft 449 kts 325°
2026-04-30 22:41 15.53740 -83.61553 33871 ft 446 kts 325°
2026-04-30 22:43 15.69461 -83.71904 33880 ft 445 kts 325°
2026-04-30 22:44 15.79886 -83.78779 33878 ft 445 kts 325°
2026-04-30 22:45 15.95590 -83.89152 33882 ft 446 kts 326°
2026-04-30 22:47 16.11285 -83.99538 33879 ft 447 kts 327°
2026-04-30 22:48 16.21787 -84.06498 33878 ft 447 kts 327°
2026-04-30 22:49 16.37501 -84.16932 33881 ft 447 kts 328°
2026-04-30 22:51 16.53185 -84.27350 33880 ft 444 kts 328°
2026-04-30 22:52 16.60995 -84.32541 33884 ft 443 kts 329°
2026-04-30 22:53 16.71375 -84.39450 33880 ft 441 kts 329°
2026-04-30 22:53 16.79091 -84.44592 33882 ft 440 kts 329°
2026-04-30 22:55 16.91979 -84.53191 33881 ft 439 kts 329°
2026-04-30 22:56 17.02268 -84.60067 33882 ft 439 kts 329°
2026-04-30 22:57 17.15159 -84.68694 33884 ft 441 kts 330°
2026-04-30 22:58 17.25465 -84.75601 33885 ft 442 kts 330°
2026-04-30 22:59 17.40116 -84.85438 33882 ft 441 kts 331°